STARLINK-36479, 67352

Orbit data source: Space-Track

STARLINK-36479, 67352 is a payload satellite owned by SpaceX/Seattle (US) in LEO that was launched on Fri, 09 Jan 2026 UTC via an FALCON 9 launch vehicle from the Air Force Eastern Test Range (AFETR). Payload-class satellites include a variety of spacecraft equipped with specific instruments for various scientific and technological missions. These include communications satellites like Starlink; space stations such as the ISS; scientific satellites like the Hubble; Earth observation satellites from companies like Planet Labs, Umbra, and HawkEye 360; GPS; miniature CubeSats for education and research; and military/defense satellites.

Loading next visibility...
Identifier
67352, 2026-003U
Orbit
LEO
Country
Flag of USUS
Related business
Manufacturer
SpaceX/Seattle
Mission
Operational Commercial Communications
Bus & Motor
STARLINK V2MO, Unknown motor
Mass
575 kg wet, ~530 kg dry
Launch date (UTC)
2026-01-09 (5 months ago)
Launch vehicle
FALCON 9
Launch site
Air Force Eastern Test Range (AFETR)
Object type
Payload
Rocket body
Debris
Shape & HBR
Box + 2 Pan, 17.7 m
Radar Cross Section
36.964 m², Large (>1 m²)

Expand to show TLE details & history
Last TLE update: 1 day ago

TLE from 1 day ago
0 STARLINK-36479
1 67352U 26003U   26170.59432047  .00013044  00000-0  48259-3 0  9997
2 67352  42.9995  11.1512 0001240 272.0388  88.0322 15.27587307 24410
Epoch: 2026-06-19T14:15Z
TLE epoch observation values (Epoch: 2026-06-19T14:15:49.288Z)
Latitude
Longitude
-110.62522°
Altitude
482.773 km
Speed
7.626 km/s
True Right ascension
00h 44m 36s
True Declination
0° 00' 00"
Sunlit
Object was in daylight at epoch
Visualization orbit readout
Latitude
Unknown
Longitude
Unknown
Altitude
Unknown
Speed
Unknown
Apparent Right ascension
Unknown
Apparent Declination
Unknown
Sunlit
N/A
Visualization observer readout
Local Sidereal Time
07:18:54
Azimuth
Unknown
Elevation
Unknown
Doppler factor
Unknown
Orbital elements
Apogee altitude
485.824 km
Perigee altitude
484.121 km
Semi-major axis
6,863.109 km
Eccentricity
0.00012
Inclination
42.9995°
RAAN
11.1512°
Arg. of periapsis
272.0388°
True anomaly
88.0464°
Mean anomaly
88.0322°
Eccentric anomaly
88.0393°
Mean motion
3.81735 °/min
Orbital period
94.31 mins
BSTAR
0.00048259
Loading maneuver chart data...
Computing Atmospheric mass density...
Loading historical data...
Loading historical data...
Loading historical data...
Loading historical data...
Loading historical data...
Loading historical data...
Loading historical data...

Documentation

Showing up to 5 results
|